パンスターズ彗星

C/2016 R2 ( PanSTARRS )

English version
Home page
Updated on July 9, 2019

---------------------------------------------------------------------

・ プロフィール

発見日 2016年9月7日
発見光度 19.1等
発見者 Pan-STARRS 1 telescope (Haleakala)

・ 写真集

・ 軌道要素

Epoch 2018 May 2.0 TT = JDT 2458240.5
T 2018 May  9.58374 TT                                  MPCW
q   2.6023716            (2000.0)            P               Q
z  +0.0013991      Peri.   33.19219     -0.14726367     -0.52443188
 +/-0.0000001      Node    80.56876     +0.61562577     -0.71221378
e   0.9963590      Incl.   58.22381     +0.77415652     +0.46660770
From 3534 observations 2016 Aug. 30-2019 May 13, mean residual 0".4.

・ 星図

・ 光度変化

        m1 = 3.5 + 5 logΔ + 13.0 log r(t + 40)

---------------------------------------------------------------------

軌道要素はM.P.E.C. 2019-J142に掲載されたものです。
星図はステラナビゲータ Ver.10 (アストロアーツ) で作成したものです。
光度グラフはComet for Windowsで作成したものです。

---------------------------------------------------------------------

Copyright(C) Seiichi Yoshida (comet@aerith.net). All rights reserved.